Waarnemingen

Advertentie
Mijn weer
Asturias/Aviles, Spanje (8011): temperatuur & dauwpunt: 15.10.2017 10:00:00 - 21.10.2017 10:00:00 (CEST)Asturias/Aviles, Spanje (8011): windsnelheid: 15.10.2017 10:00:00 - 21.10.2017 10:00:00 (CEST)Asturias/Aviles, Spanje (8011): windrichting: 15.10.2017 10:00:00 - 21.10.2017 10:00:00 (CEST)Asturias/Aviles, Spanje (8011): luchtdruk: 15.10.2017 10:00:00 - 21.10.2017 10:00:00 (CEST)Asturias/Aviles, Spanje (8011): zicht: 15.10.2017 10:00:00 - 21.10.2017 10:00:00 (CEST)
Datum & Tijd tt [°C] td [°C] ff [km/u] ff [kn] dd ppp [hPa] vv [km]
21.10.2017 10:00:00 14,6 7,1 15 8 WZW 1023,9 -
21.10.2017 09:00:00 14,5 6,5 16 9 WZW 1023,0 -
21.10.2017 08:00:00 14,2 6,5 13 7 ZW 1022,5 10
21.10.2017 07:00:00 14,8 5,8 13 7 WZW 1021,9 -
21.10.2017 06:00:00 15,9 6,7 24 13 W 1021,2 -
21.10.2017 05:00:00 16,3 8,3 22 12 W 1020,2 -
21.10.2017 04:00:00 16,4 11,1 26 14 W 1019,5 -
21.10.2017 03:00:00 16,3 12,9 26 14 W 1019,1 -
21.10.2017 02:00:00 16,1 14,1 28 15 WNW 1017,8 -
21.10.2017 01:00:00 15,5 14,3 41 22 WNW 1017,6 -
21.10.2017 00:00:00 16,7 15,1 39 21 WNW 1016,2 -
20.10.2017 23:00:00 19,0 13,2 11 6 W 1014,7 25
20.10.2017 22:00:00 18,2 14,5 0 0 N 1014,2 -
20.10.2017 21:00:00 18,2 14,3 0 0 N 1013,9 -
20.10.2017 20:00:00 19,5 14,9 0 0 N 1013,8 30
20.10.2017 19:00:00 23,0 15,1 5 3 NW 1013,1 -
20.10.2017 18:00:00 23,3 16,2 0 0 N 1013,4 -
20.10.2017 17:00:00 22,7 15,9 4 2 ONO 1013,2 35
20.10.2017 16:00:00 22,6 16,0 8 4 ONO 1013,8 -
20.10.2017 15:00:00 21,5 15,9 5 3 ONO 1014,6 -
20.10.2017 14:00:00 21,6 14,9 5 3 ONO 1015,3 35
20.10.2017 13:00:00 20,9 15,0 4 2 NO 1016,0 -
20.10.2017 12:00:00 19,6 14,6 8 4 ZZW 1016,2 -
20.10.2017 11:00:00 17,6 14,9 4 2 ZZW 1016,2 25
20.10.2017 10:00:00 15,8 14,5 13 7 ZZW 1015,9 -
20.10.2017 09:00:00 14,1 13,6 9 5 ZZW 1015,5 -
20.10.2017 08:00:00 14,1 13,3 8 4 ZZW 1015,3 12
20.10.2017 07:00:00 14,3 13,3 8 4 Z 1015,0 -
20.10.2017 06:00:00 15,3 14,3 4 2 Z 1015,1 -
20.10.2017 05:00:00 15,2 14,4 0 0 N 1015,1 -
20.10.2017 04:00:00 15,4 14,6 5 3 ZZO 1015,0 -
20.10.2017 03:00:00 15,7 14,6 0 0 N 1014,8 -
20.10.2017 02:00:00 15,3 14,3 9 5 WNW 1014,4 -
20.10.2017 01:00:00 15,3 14,5 15 8 WNW 1014,5 -
20.10.2017 00:00:00 16,2 15,4 18 10 WNW 1014,0 -
19.10.2017 23:00:00 17,0 14,6 9 5 NW 1013,0 10
19.10.2017 22:00:00 16,6 14,8 0 0 N 1011,8 -
19.10.2017 21:00:00 16,6 14,5 5 3 WNW 1011,2 -
19.10.2017 20:00:00 17,6 13,3 15 8 ZW 1010,5 10
19.10.2017 19:00:00 17,1 14,0 15 8 ZZW 1009,8 -
19.10.2017 18:00:00 19,1 14,7 0 0 N 1009,2 -
19.10.2017 17:00:00 19,4 13,1 4 2 WNW 1009,0 10
19.10.2017 16:00:00 19,9 12,7 13 7 ZZW 1008,5 -
19.10.2017 15:00:00 19,2 11,3 13 7 ZW 1009,1 -
19.10.2017 14:00:00 18,7 10,2 9 5 ZZW 1009,8 10
19.10.2017 13:00:00 17,4 8,7 16 9 ZZW 1010,1 -
19.10.2017 12:00:00 14,3 8,5 15 8 ZZW 1010,9 -
19.10.2017 11:00:00 11,1 7,8 15 8 ZZW 1010,9 10
19.10.2017 10:00:00 10,7 7,6 15 8 ZW 1010,8 -
19.10.2017 09:00:00 10,1 7,3 13 7 ZZW 1010,1 -
19.10.2017 08:00:00 9,7 7,3 16 9 ZZW 1010,7 10
19.10.2017 07:00:00 9,8 7,6 16 9 ZZW 1011,1 -
19.10.2017 06:00:00 10,3 7,5 16 9 ZZW 1011,0 -
19.10.2017 05:00:00 10,4 8,0 15 8 ZZW 1011,3 -
19.10.2017 04:00:00 11,0 8,2 15 8 ZW 1011,6 -
19.10.2017 03:00:00 11,2 8,8 13 7 ZW 1011,5 -
19.10.2017 02:00:00 11,3 9,0 11 6 ZW 1011,5 -
19.10.2017 01:00:00 11,4 9,6 11 6 ZW 1011,5 -
19.10.2017 00:00:00 11,8 10,1 11 6 ZW 1011,9 -
18.10.2017 23:00:00 11,9 10,6 9 5 ZW 1012,1 15
18.10.2017 22:00:00 12,3 11,4 11 6 ZW 1012,0 -
18.10.2017 21:00:00 12,9 11,5 8 4 ZW 1011,7 -
18.10.2017 20:00:00 13,6 11,1 5 3 WZW 1011,1 15
18.10.2017 19:00:00 15,5 11,4 4 2 W 1010,4 -
18.10.2017 18:00:00 16,5 11,9 4 2 WNW 1010,1 -
18.10.2017 17:00:00 17,1 11,1 0 0 N 1010,0 20
18.10.2017 16:00:00 16,3 11,8 0 0 N 1010,1 -
18.10.2017 15:00:00 15,5 11,7 0 0 N 1010,4 -
18.10.2017 14:00:00 13,8 12,1 8 4 ZW 1010,9 9
18.10.2017 13:00:00 13,7 12,4 8 4 WZW 1010,9 -
18.10.2017 12:00:00 - - - - - - -
18.10.2017 11:00:00 14,3 11,4 11 6 W 1010,6 9
18.10.2017 10:00:00 13,7 11,0 9 5 W 1010,2 -
18.10.2017 09:00:00 13,1 11,5 5 3 ZW 1009,7 -
18.10.2017 08:00:00 13,1 11,7 9 5 ZW 1009,4 8
18.10.2017 07:00:00 13,0 11,9 9 5 ZW 1009,8 -
18.10.2017 06:00:00 12,8 11,7 5 3 ZW 1010,2 -
18.10.2017 05:00:00 13,0 11,7 0 0 N 1010,8 -
18.10.2017 04:00:00 13,2 11,8 8 4 ZW 1011,5 -
18.10.2017 03:00:00 13,6 11,6 8 4 ZW 1011,8 -
18.10.2017 02:00:00 13,3 11,5 13 7 ZZW 1012,3 -
18.10.2017 01:00:00 13,0 11,1 8 4 ZZW 1012,9 -
18.10.2017 00:00:00 13,3 11,2 8 4 ZZW 1013,5 -
17.10.2017 23:00:00 12,5 10,4 8 4 Z 1014,0 25
17.10.2017 22:00:00 13,6 11,6 9 5 ZZO 1014,3 -
17.10.2017 21:00:00 14,5 11,8 5 3 ZZO 1014,6 -
17.10.2017 20:00:00 15,0 11,9 11 6 ZO 1014,5 25
17.10.2017 19:00:00 15,6 12,3 9 5 OZO 1014,2 -
17.10.2017 18:00:00 15,9 12,9 4 2 ZO 1014,1 -
17.10.2017 17:00:00 16,4 12,2 0 0 N 1014,1 25
17.10.2017 16:00:00 16,7 11,6 8 4 WNW 1014,3 -
17.10.2017 15:00:00 16,8 13,1 18 10 WNW 1014,8 -
17.10.2017 14:00:00 17,1 14,7 8 4 NW 1015,2 4,5
17.10.2017 13:00:00 16,4 14,9 13 7 WNW 1015,3 -
17.10.2017 12:00:00 15,3 14,0 16 9 WNW 1015,8 -
17.10.2017 11:00:00 15,7 14,2 4 2 WNW 1015,8 3,0
17.10.2017 10:00:00 15,1 13,6 0 0 N 1015,3 -
17.10.2017 09:00:00 15,3 13,3 21 11 WNW 1015,2 -
17.10.2017 08:00:00 15,1 13,0 16 9 WNW 1014,8 6
17.10.2017 07:00:00 15,0 13,9 18 10 WNW 1015,1 -
17.10.2017 06:00:00 14,8 13,3 4 2 Z 1015,0 -
17.10.2017 05:00:00 15,3 13,5 5 3 Z 1016,1 -
17.10.2017 04:00:00 15,6 13,6 4 2 ZZW 1017,2 -
17.10.2017 03:00:00 15,8 14,3 2 1 Z 1018,0 -
17.10.2017 02:00:00 16,0 14,5 4 2 OZO 1018,9 -
17.10.2017 01:00:00 16,1 14,8 4 2 ZO 1019,9 -
17.10.2017 00:00:00 16,1 14,6 4 2 OZO 1020,9 -
16.10.2017 23:00:00 15,8 14,3 8 4 OZO 1021,3 12
16.10.2017 22:00:00 16,3 14,1 4 2 OZO 1022,0 -
16.10.2017 21:00:00 16,3 13,9 4 2 OZO 1022,2 -
16.10.2017 20:00:00 16,5 13,8 0 0 N 1022,4 7
16.10.2017 19:00:00 17,0 14,3 0 0 N 1022,6 -
16.10.2017 18:00:00 17,3 14,1 0 0 N 1022,9 -
16.10.2017 17:00:00 17,4 13,8 0 0 N 1022,9 -
16.10.2017 16:00:00 17,5 13,3 2 1 WNW 1023,0 -
16.10.2017 15:00:00 17,0 13,2 0 0 N 1023,2 -
16.10.2017 14:00:00 16,9 13,0 4 2 NW 1023,0 -
16.10.2017 13:00:00 16,8 12,9 9 5 WNW 1022,7 -
16.10.2017 12:00:00 16,8 12,9 15 8 WNW 1022,1 -
16.10.2017 11:00:00 16,9 13,4 21 11 WNW 1021,2 8
16.10.2017 10:00:00 17,1 14,0 22 12 WNW 1019,9 -
16.10.2017 09:00:00 17,7 14,8 24 13 WNW 1018,4 -
16.10.2017 08:00:00 22,7 10,9 4 2 NW 1016,0 2,4
16.10.2017 07:00:00 21,8 11,9 4 2 O 1015,4 -
16.10.2017 06:00:00 20,8 11,4 0 0 N 1014,4 -
16.10.2017 05:00:00 23,3 9,0 8 4 W 1013,8 -
16.10.2017 04:00:00 22,0 9,1 13 7 ZZW 1013,4 -
16.10.2017 03:00:00 19,7 10,9 13 7 ZO 1013,4 -
16.10.2017 02:00:00 23,3 8,7 16 9 ZO 1013,5 -
16.10.2017 01:00:00 21,3 10,7 13 7 Z 1013,9 -
16.10.2017 00:00:00 21,5 10,5 16 9 OZO 1014,6 -
15.10.2017 23:00:00 25,7 8,3 13 7 ZZO 1014,7 25
15.10.2017 22:00:00 28,1 7,9 18 10 ZZO 1014,6 -
15.10.2017 21:00:00 27,7 8,1 11 6 Z 1014,8 -
15.10.2017 20:00:00 26,3 9,1 11 6 ZZO 1014,7 25
15.10.2017 19:00:00 27,6 9,7 15 8 ZZO 1014,8 -
15.10.2017 18:00:00 30,6 9,7 16 9 ZZO 1015,0 -
15.10.2017 17:00:00 32,0 13,0 11 6 ZZO 1015,1 25
15.10.2017 16:00:00 29,5 14,5 15 8 ZO 1015,8 -
15.10.2017 15:00:00 28,1 14,5 16 9 ZO 1016,5 -
15.10.2017 14:00:00 25,3 15,4 11 6 ZO 1017,7 25
15.10.2017 13:00:00 22,5 13,0 11 6 Z 1018,4 -
15.10.2017 12:00:00 22,6 12,1 11 6 Z 1018,5 -
15.10.2017 11:00:00 21,4 10,4 18 10 ZZW 1018,5 20
15.10.2017 10:00:00 20,9 10,0 24 13 ZZW 1018,0 -

tt = temperatuur
td = dauwpunt
ff = windsnelheid
dd = windrichting
ppp = luchtdruk
vv = zicht

Weerstations in de omgeving